Location: Howard City Library
(37.4684°N, 96.2639°W)
Time: 18:26:36
(UTC+00:00)

CZ-2C R/B - Pass Details

Date: 18 February 2020
Orbit: 703 x 909 km, 98.1° (Epoch: 01 April)

Event Time Altitude Azimuth Distance (km) Brightness Sun altitude
Exits shadow 01:13:24 19° 99° (E) 2,044 4.6 -14.0°
Maximum altitude 01:15:48 24° 66° (ENE) 1,786 4.3 -14.4°
Drops below altitude 10° 01:20:20 10° 15° (NNE) 2,592 5.6 -15.3°
Sets 01:23:10 0° 2° (N) 3,523 6.4 -15.9°
